ATLAS 5 CENTAUR DEB, 44651

Orbit data source: Space-Track

ATLAS 5 CENTAUR DEB, 44651 is space debris in HEO originally from a launch on Wed, 17 Oct 2018 UTC launched from the Air Force Eastern Test Range (AFETR). Debris objects in space refer to the collection of defunct objects orbiting the Earth. Examples of debris include non-operational satellites, rocket bodies, and fragments generated from explosions, collisions, or faulty payload assembly.

Loading next visibility...
Identifier
44651, 2018-079M
Orbit
HEO
Country
Flag of USUS
Related business
Flag of USUnited Launch Alliance/Lockheed Martin (US)
Manufacturer
ULA Decatur
Mission
Spacecraft
Bus & Motor
Unknown
Mass
Unknown
Launch date (UTC)
2018-10-17 (8 years ago)
Launch vehicle
Unknown
Launch site
Air Force Eastern Test Range (AFETR)
Object type
Payload
Rocket body
Debris
Shape & HBR
Unknown shape, 1.1 m
Radar Cross Section
Medium (>0.1 m² and <1 m²)

Expand to show TLE details & history
Last TLE update: 1 week ago

TLE from 1 week ago
0 ATLAS 5 CENTAUR DEB
1 44651U 18079M   26227.92373445 -.00000160  00000-0  00000-0 0  9999
2 44651  13.3678  27.7443 4673641 331.6379   9.2155  1.83293122 49174
Epoch: 2026-08-15T22:10Z
TLE epoch observation values (Epoch: 2026-08-15T22:10:10.656Z)
Latitude
-0.00004°
Longitude
90.91353°
Altitude
9,235.141 km
Speed
6.077 km/s
True Right ascension
01h 51m 08s
True Declination
0° 00' 00"
Sunlit
Object was in daylight at epoch
Visualization orbit readout
Latitude
Unknown
Longitude
Unknown
Altitude
Unknown
Speed
Unknown
Apparent Right ascension
Unknown
Apparent Declination
Unknown
Sunlit
N/A
Visualization observer readout
Local Sidereal Time
15:12:05
Azimuth
Unknown
Elevation
Unknown
Doppler factor
Unknown
Orbital elements
Apogee altitude
35,009.875 km
Perigee altitude
8,645.224 km
Semi-major axis
28,205.686 km
Eccentricity
0.46736
Inclination
13.3678°
RAAN
27.7443°
Arg. of periapsis
331.6379°
True anomaly
27.99184°
Mean anomaly
9.2155°
Eccentric anomaly
17.08068°
Mean motion
0.45818 °/min
Orbital period
785.71 mins
BSTAR
0
Loading maneuver chart data...
Computing Atmospheric mass density...

Documentation

Showing up to 5 results
|